#timestamp,LO_Frequency,Hit,StdDev 
1510909215.8,286046990.7,N
1510909235.7,286046990.3,N
1510909255.5,286046987.0,N
1510909275.3,286046984.0,N
1510909295.1,286046986.5,N
1510909315.9,286046989.9,N
1510909335.7,286046985.4,N
1510909355.5,286046988.5,N
1510909375.4,286046993.7,N
1510909395.2,286047001.1,N
1510909415.0,286046999.7,N
1510909415.9,286046999.7,N
1510909435.8,286047001.4,N
1510909455.6,286047009.0,N
1510909475.4,286047012.2,N
1510909495.3,286047007.8,N
1510909515.1,286047010.2,N
1510909516.0,286047010.2,N
1510909535.8,286047009.4,N
1510909555.7,286047010.1,N
1510909575.5,286047009.8,N
1510909595.3,286047010.1,N
1510909615.1,286047011.1,N
1510909635.9,286047014.0,N
1510909655.7,286047015.9,N
1510909675.5,286047018.7,N
1510909695.4,286047022.0,N
1510909715.2,286047022.4,N
1510909735.0,286047020.4,N
1510909735.9,286047020.4,N
1510909755.8,286047018.2,N
1510909775.6,286047018.8,N
1510909795.4,286047015.0,N
1510909815.3,286047008.9,N
1510909835.1,286047004.7,N
1510909836.0,286047004.7,N
1510909855.8,286047005.3,N
1510909875.7,286047002.6,N
1510909895.5,286046996.5,N
1510909915.3,286046997.4,N
1510909935.1,286046993.7,N
1510909955.9,286046999.1,N
1510909975.7,286046999.9,N
1510909995.5,286047001.3,N
1510910015.4,286047005.2,N
1510910035.2,286047004.8,N
1510910055.0,286047010.3,N
1510910055.9,286047010.3,N
1510910075.8,286047010.2,N
1510910095.6,286047011.2,N
1510910115.4,286047014.8,N
1510910135.3,286047016.9,N
1510910155.1,286047016.7,N
1510910156.0,286047016.7,N
1510910175.8,286047013.8,N
1510910195.7,286047015.0,N
1510910215.5,286047013.9,N
1510910235.3,286047006.2,N
1510910255.2,286047006.4,N
1510910275.9,286047006.0,N
1510910295.7,286047000.2,N
1510910315.5,286047000.8,N
1510910335.4,286047002.6,N
1510910355.2,286047005.0,N
1510910375.0,286047009.2,N
1510910375.9,286047009.2,N
1510910395.8,286047008.9,N
1510910415.6,286047009.2,N
1510910435.4,286047009.6,N
1510910455.3,286047014.7,N
1510910475.1,286047015.0,N
1510910495.8,286047015.8,N
1510910515.7,286047014.7,N
1510910535.5,286047017.1,Y
1510910555.3,286047012.0,P
1510910575.2,286047010.3,P
1510910595.9,286047010.4,P
1510910615.7,286047009.7,Y
1510910635.6,286047002.7,P
1510910655.4,286047004.7,N
1510910675.2,286047002.4,N
1510910695.1,286047001.2,N
1510910696.0,286047001.2,N
1510910715.8,286047000.4,N
1510910735.6,286047000.5,N
1510910755.5,286046998.2,N
1510910775.3,286047002.4,N
1510910795.1,286047001.0,N
1510910815.9,286046998.1,N
1510910835.7,286046997.1,N
1510910855.5,286046991.7,N
1510910875.3,286046991.5,N
1510910895.2,286046986.0,Y
1510910915.0,286046986.7,P
1510910915.9,286046986.7,N
1510910935.7,286046988.3,N
1510910955.6,286046989.7,N
1510910975.4,286046990.1,N
1510910995.2,286046992.4,N
1510911015.1,286046993.5,N
1510911016.0,286046993.5,N
1510911035.8,286046994.2,N
1510911055.6,286046988.8,N
1510911075.5,286046985.4,Y
1510911095.3,286046996.2,P
1510911115.1,286046996.7,N
1510911135.9,286046996.2,N
1510911155.7,286046993.4,Y
1510911175.5,286047000.0,P
1510911195.4,286046998.1,N
1510911215.2,286046999.4,N
1510911235.0,286046994.1,Y
1510911235.9,286046994.1,P
1510911255.8,286046994.6,N
1510911275.6,286046989.5,P
1510911295.4,286046985.2,Y
1510911315.3,286046988.1,P
1510911335.1,286046986.6,P
1510911355.8,286046986.5,P
1510911375.7,286046982.3,Y
1510911395.5,286046991.0,P
1510911415.3,286046988.4,P
1510911435.2,286046986.1,P
1510911455.0,286046984.2,Y
1510911455.9,286046984.2,P
1510911475.7,286046991.9,P
1510911495.6,286046994.3,N
1510911515.4,286046995.5,N
1510911535.2,286046997.9,N
1510911555.1,286046996.5,N
1510911556.0,286046996.5,N
1510911575.8,286047000.7,N
1510911595.6,286047000.7,N
1510911615.5,286047000.5,N
1510911635.3,286046994.4,N
1510911655.1,286046993.7,N
1510911675.9,286046987.0,N
1510911695.7,286046988.7,N
1510911715.5,286046988.8,N
1510911735.4,286046989.1,N
1510911755.2,286046990.4,N
1510911775.0,286046994.1,N
1510911775.9,286046994.1,N
1510911795.8,286046995.7,N
1510911815.6,286046998.9,N
1510911835.4,286046997.9,N
1510911855.2,286046999.4,N
1510911875.1,286047003.1,N
1510911876.0,286047003.1,N
1510911895.8,286047006.9,N
1510911915.6,286047008.4,N
1510911935.5,286047013.9,N
1510911955.3,286047014.1,N
1510911975.1,286047017.8,N
1510911995.9,286047019.9,N
1510912015.7,286047021.5,N
1510912035.5,286047021.6,N
1510912055.4,286047020.7,N
1510912075.2,286047022.8,N
1510912095.0,286047026.8,N
1510912095.9,286047026.8,N
1510912115.8,286047028.3,N
1510912135.6,286047033.2,N
1510912155.4,286047031.9,N
1510912175.3,286047036.6,N
1510912195.1,286047038.5,N
1510912196.0,286047038.5,N
1510912215.8,286047039.1,N
1510912235.6,286047043.9,N
1510912255.5,286047041.0,N
1510912275.3,286047038.0,N
1510912295.1,286047034.8,N
1510912315.9,286047028.9,N
1510912335.7,286047031.4,N
1510912355.5,286047028.8,N
1510912375.4,286047029.7,N
1510912395.2,286047031.6,N
1510912415.0,286047034.8,Y
1510912415.9,286047034.8,P
1510912435.8,286047009.6,N
1510912455.6,286047015.3,N
1510912475.4,286047017.4,N
1510912495.3,286047020.1,N
1510912515.1,286047018.0,N
1510912516.0,286047018.0,N
1510912535.8,286047019.1,N
1510912555.7,286047017.3,N
1510912575.5,286047018.9,N
1510912595.3,286047023.1,Y
1510912615.2,286047003.6,P
1510912635.9,286047001.2,N
1510912655.7,286046998.8,N
1510912675.6,286046992.1,N
1510912695.4,286046986.1,N
1510912715.2,286046982.2,N
1510912735.0,286046987.8,N
1510912736.0,286046987.8,N
1510912755.8,286046987.0,N
1510912775.6,286046984.7,N
1510912795.4,286046987.5,N
